星链-34662 (STARLINK-34662)

导读

STARLINK-34662是美国SpaceX公司星链(Starlink)项目的第二代互联网卫星,于2025年7月16日发射入轨。作为星链全球卫星互联网 constellation 的一员,它配备星间激光通信终端,可支持高速太空组网,为全球偏远地区、海洋和极地提供宽带互联网接入服务,助力SpaceX构建天地一体化太空基础设施。

基本信息
目录编号:
64799
目录名称:
STARLINK-34662
国际标识:
2025-150K
轨道中心:
EARTH
卫星名称:
星链-34662
卫星全名:
星链-34662 (STARLINK-34662)
卫星状态:
在轨 (已飞行416 天)
发射日期:
2025-07-16 UTC
国别 :
美国 (US)
星等 :
--
轨道信息
数据来源 国际轨道数据 AOE轨道数据
星历时间 2026-09-05T05:24:16+0800
15小时前
查看轨道信息
2026-09-02T16:00:00+0800
3天前
查看轨道信息
半长轴 6950.186km 6950.191km
偏心率 0.0002981 0.0002025
轨道倾角 70.002° 70.012°
近地点辐角 264.773° 248.377°
升交点赤经 42.460° 48.919°
平近点角 95.309° 355.011°
近地点 569.977km 570.646km
远地点 574.121km 573.462km
周期 96.107分钟 96.107分钟
每日圈数 14.983324 14.983308
详细信息
固有亮度:
5
最大亮度:
2.5
卫星平台:
Starlink V1.0
覆盖范围:
全球
运营商:
太空探索技术公司
运营商所在国:
美国
制造商(研发单位):
太空探索技术公司
制造商所在国:
美国
使用方式:
暂无
卫星简介
Starlink 计划是 SpaceX 推出的全球卫星互联网项目,通过发射低轨道卫星,为全球尤其是偏远地区提供高速、低延迟的互联网服务。自 2019 年起,Starlink 已部署数千颗卫星,旨在缩小全球数字鸿沟,推动互联网普及。该项目还为军事、航空等行业提供通信支持,带来广泛经济效益。
2D轨道图
3D轨道图
轨道高度分析图
轨道倾角分析图
轨道综合分析图
查看轨道综合分析图